Date,TemperatureHighF,TemperatureAvgF,TemperatureLowF,DewpointHighF,DewpointAvgF,DewpointLowF,HumidityHigh,HumidityAvg,HumidityLow,PressureMaxIn,PressureMinIn,WindSpeedMaxMPH,WindSpeedAvgMPH,GustSpeedMaxMPH,PrecipitationSumIn
2013-1-1,22.9,17.9,4.9,19.6,13.1,2.1,89,82,67,30.30,30.14,7,4,11,0.00
2013-1-2,26.8,15.1,3.1,19.6,10.7,0.6,92,83,68,30.28,30.17,7,2,13,0.00
2013-1-3,33.3,25.1,16.1,29.8,21.7,12.1,93,87,80,30.38,30.18,10,4,13,0.01
2013-1-4,35.2,21.2,8.4,28.3,17.5,5.7,92,86,73,30.37,30.28,11,4,12,0.00
2013-1-5,37.5,29.6,18.6,34.7,27.1,16.2,95,90,84,30.29,30.02,10,4,13,0.02
2013-1-6,36.3,27.8,19.1,34.5,24.1,17.2,93,86,77,30.36,30.00,15,8,30,0.00
2013-1-7,41.0,29.5,18.9,33.9,26.0,17.1,93,87,72,30.38,30.13,11,4,22,0.00
2013-1-8,46.4,35.5,27.5,38.8,31.8,25.4,93,87,73,30.17,30.07,7,3,15,0.00
2013-1-9,50.9,38.0,28.6,39.7,33.0,26.3,94,83,55,30.50,30.08,11,3,16,0.00
2013-1-10,51.2,37.8,29.2,51.2,35.2,27.4,100,91,74,30.48,29.79,7,4,14,0.90
2013-1-11,59.0,52.6,46.8,54.2,50.9,46.5,100,94,83,29.81,29.68,11,7,20,0.36
2013-1-12,53.0,42.3,29.3,50.2,38.6,27.6,94,87,76,29.98,29.72,14,7,22,0.02
2013-1-13,29.2,21.8,16.3,27.7,18.3,12.3,94,86,82,30.33,29.90,8,5,11,0.00
2013-1-14,26.9,19.5,14.7,20.1,15.5,11.6,91,84,72,30.50,30.33,6,2,10,0.00
2013-1-15,30.6,22.0,13.2,22.7,17.9,11.3,93,84,69,30.46,30.15,4,1,8,0.00
2013-1-16,38.4,28.3,15.4,31.1,23.8,13.2,93,84,72,30.16,29.93,16,4,20,0.01
2013-1-17,35.7,31.0,23.0,32.3,25.5,20.5,93,81,57,30.45,30.09,14,5,19,0.00
2013-1-18,47.0,34.8,21.6,37.1,28.8,19.3,92,79,67,30.46,30.01,13,7,26,0.02
2013-1-19,54.3,43.2,35.6,43.2,36.1,30.5,86,76,64,30.03,29.82,19,8,21,0.00
2013-1-20,28.7,21.6,17.8,16.8,13.9,11.3,82,72,60,30.35,30.15,15,8,22,0.00
2013-1-21,18.8,12.4,8.2,13.4,3.9,0.3,81,68,53,30.40,30.27,17,11,24,0.00
2013-1-22,17.3,11.3,5.0,7.0,1.8,-1.7,79,66,52,30.49,30.39,8,5,14,0.00
2013-1-23,35.1,23.8,15.9,22.4,13.4,6.3,71,64,54,30.40,30.13,17,6,23,0.00
2013-1-24,25.1,19.1,10.3,13.1,8.3,1.7,78,63,52,30.66,30.32,13,5,23,0.00
2013-1-25,38.4,29.1,22.9,24.6,19.8,12.2,83,68,55,30.31,30.03,13,6,19,0.00
2013-1-26,32.8,24.8,14.3,20.7,15.2,9.4,82,67,52,30.42,30.23,10,3,17,0.00
2013-1-27,45.6,33.9,27.5,45.3,30.2,20.6,99,86,72,30.36,29.91,9,5,20,0.14
2013-1-28,56.9,50.8,44.8,56.9,50.7,44.3,100,100,98,29.93,29.76,8,4,15,0.02
2013-1-29,65.8,58.7,51.9,63.4,57.8,51.6,100,97,85,29.76,29.37,14,6,22,1.38
2013-1-30,51.7,34.6,21.0,51.4,32.8,16.1,100,93,81,29.80,29.25,21,11,29,0.16
2013-1-31,25.4,17.5,8.4,21.2,11.5,2.0,87,77,68,30.33,29.81,20,14,25,0.00
2013-2-1,23.3,13.9,4.9,21.1,7.0,0.1,91,74,62,30.47,30.21,14,8,20,0.00
2013-2-2,30.1,24.4,19.3,27.1,20.5,13.6,93,85,77,30.22,30.06,12,6,17,0.00
2013-2-3,31.6,26.0,19.7,24.8,20.6,16.2,95,81,62,30.13,30.00,15,6,22,0.00
2013-2-4,40.9,31.2,24.0,31.0,25.7,21.0,88,80,65,30.00,29.80,12,5,17,0.00
2013-2-5,43.7,32.8,21.6,35.6,28.6,19.1,93,85,72,30.10,29.84,13,5,20,0.00
2013-2-6,47.2,35.9,24.3,36.9,31.3,22.6,96,84,66,30.23,30.06,7,3,16,0.00
2013-2-7,39.2,37.1,35.5,38.4,35.8,33.0,98,95,88,30.08,29.83,11,4,21,0.46
2013-2-8,36.0,30.7,28.3,34.7,27.3,24.9,95,87,83,30.39,30.02,15,6,19,0.01
2013-2-9,37.3,33.2,29.5,33.7,29.5,26.1,90,86,82,30.39,30.03,7,4,16,0.00
2013-2-10,50.8,43.7,36.7,49.2,41.6,33.7,97,92,71,30.05,29.50,24,10,29,0.51
2013-2-11,43.3,36.7,30.3,35.8,29.5,26.6,86,75,66,30.12,29.62,25,14,36,0.00
2013-2-12,40.0,31.6,26.2,31.5,27.6,23.8,93,85,68,30.16,29.93,7,2,10,0.00
2013-2-13,48.1,35.5,25.7,37.4,31.0,24.2,97,85,61,29.93,29.76,10,3,14,0.00
2013-2-14,42.5,37.7,34.3,36.2,33.3,30.5,94,84,74,30.02,29.72,17,7,25,0.00
2013-2-15,36.8,30.6,23.5,32.3,22.0,17.4,92,71,49,30.25,30.02,11,8,17,0.00
2013-2-16,31.1,23.5,16.4,19.6,15.3,10.6,81,71,58,30.25,30.16,12,7,18,0.00
2013-2-17,39.7,27.5,14.9,27.0,19.7,10.4,89,73,55,30.23,29.92,9,4,18,0.00
2013-2-18,56.1,41.5,27.6,49.3,36.3,22.5,95,82,71,29.92,29.45,22,11,31,0.20
2013-2-19,26.9,22.7,18.6,21.8,15.7,11.7,83,74,67,30.28,29.79,23,16,31,0.00
2013-2-20,25.9,18.2,8.4,17.1,11.3,2.9,86,74,60,30.44,30.28,13,6,20,0.00
2013-2-21,30.3,24.7,16.5,29.1,21.7,13.3,97,88,79,30.38,29.88,12,6,19,0.00
2013-2-22,35.1,22.5,28.2,34.6,-6.3,-99.9,99,66,84,30.00,29.78,15,7,20,0.17
2013-2-23,31.0,25.9,19.2,25.1,21.5,17.3,93,83,76,30.02,29.97,9,4,11,0.02
2013-2-24,38.7,27.0,14.8,31.8,23.3,13.1,95,86,71,30.15,30.01,5,1,10,0.00
2013-2-25,45.6,36.1,27.1,37.8,31.6,25.2,94,84,73,30.12,29.81,10,5,17,0.00
2013-2-26,37.2,34.6,33.5,33.8,32.9,31.3,98,94,79,29.82,29.44,16,9,31,0.49
2013-2-27,35.4,33.3,31.5,33.3,32.3,30.7,98,96,89,29.80,29.56,9,5,14,0.32
2013-2-28,37.9,34.8,32.9,33.9,32.6,31.6,96,92,82,30.08,29.80,10,6,17,0.09
2013-3-1,33.4,30.1,26.8,32.2,26.6,23.4,96,87,77,30.22,30.07,10,6,16,0.02
2013-3-2,31.4,26.7,16.9,23.6,19.2,13.2,87,73,56,30.25,30.19,12,7,19,0.00
2013-3-3,34.3,24.5,12.9,23.7,17.9,11.0,93,77,52,30.22,30.08,4,1,7,0.00
2013-3-4,38.3,33.7,28.1,32.2,28.3,21.3,90,81,73,30.10,29.88,12,6,21,0.01
2013-3-5,36.2,33.1,30.1,33.2,31.1,28.2,97,93,84,30.07,29.83,16,9,25,0.12
2013-3-6,32.3,29.5,26.0,27.9,25.8,23.2,92,86,80,30.36,30.08,15,9,27,0.01
2013-3-7,36.6,31.1,27.1,30.5,27.2,24.4,91,85,77,30.43,30.35,5,2,11,0.00
2013-3-8,47.2,37.0,26.9,39.9,32.7,25.1,94,85,74,30.45,30.23,8,4,15,0.01
2013-3-9,52.6,44.1,38.5,47.3,40.1,34.4,95,86,78,30.23,29.76,11,6,21,0.41
2013-3-10,53.2,50.4,46.4,52.5,49.4,44.3,99,96,86,29.77,29.55,8,4,16,1.17
2013-3-11,49.8,37.6,32.5,49.5,35.9,28.8,99,93,86,29.91,29.60,16,11,24,0.01
2013-3-12,41.9,33.4,27.6,34.8,28.5,24.0,91,82,70,30.15,29.91,16,10,23,0.00
2013-3-13,38.4,30.2,24.9,25.5,22.8,21.0,86,75,51,30.38,30.14,13,8,23,0.00
2013-3-14,46.6,34.3,23.5,36.9,29.4,21.4,94,83,63,30.38,30.09,9,3,21,0.00
2013-3-15,55.1,42.2,29.4,47.3,38.1,27.9,96,86,72,30.08,29.64,6,2,11,0.00
2013-3-16,47.7,39.0,33.0,44.9,35.3,29.8,97,87,73,30.10,29.62,13,6,21,0.00
2013-3-17,40.4,35.2,31.5,32.2,29.5,26.0,88,80,70,30.16,29.89,11,7,21,0.00
2013-3-18,42.6,34.8,27.8,38.5,31.7,20.6,97,89,72,29.95,29.68,18,8,27,0.05
2013-3-19,42.7,31.2,22.6,23.8,19.8,14.8,80,64,41,30.17,29.93,16,10,24,0.00
2013-3-20,32.6,26.4,19.0,23.2,15.3,11.0,80,63,48,30.23,30.11,18,12,28,0.00
2013-3-21,36.5,25.6,15.6,19.0,14.4,10.7,84,64,45,30.14,30.02,11,3,16,0.00
2013-3-22,45.6,32.8,18.5,28.3,21.6,15.8,91,66,40,30.08,29.99,5,1,10,0.00
2013-3-23,50.7,40.9,34.2,32.1,28.3,24.9,75,62,44,30.08,29.94,10,5,18,0.00
2013-3-24,34.9,32.2,30.6,33.2,30.9,26.8,98,95,73,29.96,29.63,13,9,22,0.15
2013-3-25,38.0,33.3,28.7,30.9,29.6,27.7,98,87,73,30.14,29.76,13,9,23,0.17
2013-3-26,39.3,35.5,31.6,30.9,29.3,27.3,84,78,66,30.31,30.14,10,6,14,0.00
2013-3-27,45.9,36.6,29.5,32.3,29.1,26.5,91,75,54,30.37,30.31,7,3,12,0.00
2013-3-28,49.4,37.5,24.6,36.1,30.7,23.1,96,78,56,30.38,30.28,5,1,11,0.00
2013-3-29,59.4,46.5,35.6,40.4,36.7,32.7,90,71,45,30.30,30.19,5,2,10,0.00
2013-3-30,57.1,46.8,33.6,47.1,41.2,31.8,96,82,63,30.20,29.88,11,4,22,0.00
2013-3-31,63.6,51.8,41.9,49.6,43.2,31.4,96,75,48,29.93,29.77,16,8,37,0.00
2013-4-1,45.7,38.6,30.9,31.7,25.5,22.0,82,60,41,30.23,29.94,13,9,23,0.00
2013-4-2,49.0,36.5,22.6,26.0,22.2,18.1,87,59,34,30.34,30.24,11,5,17,0.00
2013-4-3,52.4,39.3,24.9,26.9,23.9,20.2,83,57,33,30.44,30.29,8,3,14,0.00
2013-4-4,59.7,44.1,29.9,34.5,29.0,24.3,81,58,34,30.28,30.00,6,2,10,0.00
2013-4-5,61.7,48.8,36.1,38.8,33.6,27.3,86,59,33,30.19,30.02,9,4,15,0.00
2013-4-6,70.6,57.8,44.3,52.8,40.4,28.5,83,53,37,30.05,29.62,18,10,34,0.11
2013-4-7,71.0,57.0,41.7,51.2,47.0,39.0,94,71,47,29.93,29.71,8,3,14,0.00
2013-4-8,73.7,64.9,57.9,62.5,58.8,46.9,94,81,66,29.83,29.59,15,6,24,0.15
2013-4-9,79.9,69.1,61.3,65.6,61.8,57.9,90,78,58,29.84,29.74,17,7,24,0.00
2013-4-10,67.9,50.1,43.9,63.2,48.5,42.6,98,94,81,29.89,29.67,14,7,24,0.53
2013-4-11,46.8,42.3,39.7,43.0,37.4,34.0,87,83,80,29.66,29.61,13,11,21,0.07
2013-4-12,43.7,41.2,39.1,39.0,36.5,33.5,89,83,78,29.92,29.63,15,10,26,0.00
2013-4-13,53.3,45.2,37.6,41.7,36.3,30.1,82,71,56,30.01,29.92,14,7,22,0.00
2013-4-14,76.4,61.1,46.6,57.3,49.5,39.3,87,68,45,29.93,29.57,14,8,27,0.00
2013-4-15,64.8,55.8,47.4,58.7,52.8,44.3,98,90,67,29.96,29.65,14,5,31,0.34
2013-4-16,55.6,48.7,43.4,46.4,43.3,41.3,96,82,61,30.18,29.93,8,5,14,0.35
2013-4-17,57.8,50.9,46.2,57.5,47.8,39.6,99,89,76,30.19,29.66,15,7,25,1.25
2013-4-18,63.6,42.9,40.6,63.3,21.5,-99.9,100,75,80,29.66,29.42,22,9,30,0.80
2013-4-19,43.1,39.8,34.7,38.0,33.6,30.1,85,79,73,30.02,29.62,18,13,29,0.00
2013-4-20,49.7,40.4,31.3,37.1,32.1,28.2,89,73,52,30.36,30.02,5,2,12,0.00
2013-4-21,59.4,48.6,38.8,45.6,39.0,32.3,82,70,59,30.45,30.26,9,6,20,0.00
2013-4-22,69.1,56.5,43.6,50.9,44.3,37.6,83,66,42,30.28,29.98,9,4,15,0.00
2013-4-23,57.7,47.7,39.8,52.9,45.9,38.5,97,93,82,30.03,29.89,12,6,22,0.43
2013-4-24,51.2,43.7,38.0,40.3,37.6,35.2,95,80,59,30.17,29.96,11,7,17,0.00
2013-4-25,56.9,47.9,40.6,40.3,36.9,32.3,85,67,48,30.31,30.13,14,7,21,0.00
2013-4-26,64.8,53.4,43.3,52.7,44.9,36.6,88,73,62,30.32,30.23,11,6,19,0.00
2013-4-27,62.4,53.8,43.6,53.2,49.5,42.3,98,86,62,30.27,29.94,7,3,17,0.12
2013-4-28,67.1,57.9,53.0,59.0,54.9,51.0,100,91,72,29.94,29.81,8,4,13,0.01
2013-4-29,76.7,62.2,45.6,65.0,56.5,44.8,98,83,64,29.90,29.70,10,5,22,0.00
2013-4-30,85.8,72.1,59.7,66.7,61.4,58.3,96,72,44,29.89,29.72,13,6,23,0.00
2013-5-1,83.5,71.4,59.0,64.5,59.3,56.2,93,69,41,30.06,29.90,8,3,16,0.00
2013-5-2,72.0,62.0,48.1,64.0,56.6,46.4,95,83,73,30.12,30.03,12,6,18,0.08
2013-5-3,62.5,47.4,45.2,62.2,38.5,-99.9,100,89,95,30.07,29.77,11,5,19,0.85
2013-5-4,64.3,58.7,53.5,59.8,56.7,52.4,98,93,80,30.00,29.81,10,3,24,0.20
2013-5-5,72.6,61.4,53.7,61.5,56.1,52.9,99,84,55,29.99,29.86,8,4,17,0.02
2013-5-6,76.4,65.4,55.0,57.4,52.7,47.9,92,66,40,29.97,29.90,10,4,18,0.00
2013-5-7,78.7,68.7,56.7,58.6,50.5,43.3,82,55,31,29.99,29.92,6,1,10,0.00
2013-5-8,80.9,66.8,50.4,60.3,54.0,48.5,97,67,36,30.00,29.91,4,1,11,0.00
2013-5-9,70.5,64.2,61.2,65.3,62.1,59.2,98,93,78,29.94,29.77,8,2,15,0.58
2013-5-10,61.2,56.4,52.4,60.7,54.5,49.6,99,93,87,29.96,29.77,10,5,17,0.01
2013-5-11,62.4,54.7,44.3,55.4,44.9,34.9,96,72,45,30.09,29.90,15,6,23,0.00
2013-5-12,58.3,48.7,38.4,38.8,35.6,33.3,85,62,42,30.18,30.10,11,4,17,0.00
2013-5-13,69.3,54.9,35.7,46.7,41.4,34.4,98,65,37,30.18,29.99,8,2,13,0.00
2013-5-14,91.5,73.6,54.4,68.0,58.6,45.9,80,61,42,29.98,29.65,13,6,18,0.00
2013-5-15,83.5,76.2,67.0,68.9,62.6,59.2,83,63,53,29.80,29.70,13,6,20,0.00
2013-5-16,85.0,71.6,61.7,68.0,63.1,59.4,96,77,44,29.89,29.79,6,2,11,0.13
2013-5-17,80.8,70.2,59.0,68.5,63.6,57.6,97,81,53,29.94,29.86,6,2,14,0.35
2013-5-18,82.0,72.4,64.5,69.9,66.3,63.6,98,82,61,29.98,29.85,4,1,10,0.00
2013-5-19,89.2,77.5,65.3,76.4,70.2,63.3,96,79,61,29.88,29.65,8,4,18,0.00
2013-5-20,83.9,74.0,64.0,71.5,66.7,62.4,98,79,55,29.80,29.63,22,6,28,0.46
2013-5-21,81.5,71.9,63.5,70.8,66.2,62.1,97,83,63,29.71,29.60,11,5,18,0.04
2013-5-22,73.0,66.7,61.4,65.8,61.9,57.3,96,85,67,29.77,29.59,10,4,18,0.09
2013-5-23,64.2,59.3,50.4,60.2,55.1,47.3,96,86,72,30.23,29.77,11,4,17,0.01
2013-5-24,67.5,55.2,41.2,49.5,44.6,39.3,98,70,40,30.42,30.23,6,2,14,0.01
2013-5-25,55.8,52.6,49.9,53.8,46.8,40.2,96,81,63,30.40,30.20,6,3,16,0.51
2013-5-26,66.3,58.3,51.7,62.8,56.2,50.0,98,93,86,30.26,30.00,10,4,15,0.89
2013-5-27,69.9,64.4,58.9,67.2,63.4,58.2,100,97,89,30.03,29.74,8,2,18,1.23
2013-5-28,77.2,71.8,64.7,74.1,69.4,63.8,98,92,83,29.87,29.70,12,5,24,0.35
2013-5-29,84.5,71.5,64.1,75.3,67.8,62.9,96,89,71,29.92,29.80,8,4,22,0.04
2013-5-30,84.2,74.9,63.5,75.2,69.5,62.1,99,84,67,29.85,29.71,14,7,38,1.29
2013-5-31,76.0,69.2,63.9,74.1,67.7,63.6,99,95,86,29.84,29.65,10,3,16,1.34
2013-6-1,76.3,68.2,63.6,71.1,65.0,60.7,97,90,75,29.78,29.64,11,4,20,0.06
2013-6-2,64.3,61.6,57.8,60.7,57.9,53.1,97,88,81,30.01,29.77,8,4,13,0.00
2013-6-3,68.3,59.6,48.8,55.5,52.0,47.4,97,77,60,30.11,29.98,4,1,13,0.00
2013-6-4,74.2,64.0,52.0,61.0,55.5,50.3,95,75,55,30.09,29.98,5,2,13,0.00
2013-6-5,78.9,69.0,57.8,65.1,60.8,55.8,95,77,55,30.01,29.83,5,1,9,0.00
2013-6-6,73.2,65.9,59.9,65.8,60.1,55.1,90,81,73,29.85,29.80,7,3,14,0.00
2013-6-7,74.5,64.6,56.4,62.4,57.2,51.9,89,77,61,29.89,29.84,8,3,15,0.00
2013-6-8,78.7,66.8,51.1,62.3,56.2,47.7,93,70,50,29.94,29.87,4,1,8,0.00
2013-6-9,81.6,70.3,62.7,68.5,62.8,59.6,93,78,58,29.92,29.74,11,4,18,0.01
2013-6-10,79.4,68.9,60.3,69.2,64.1,59.2,99,85,65,29.85,29.70,5,1,12,0.01
2013-6-11,88.4,74.1,58.4,76.8,68.0,57.6,100,83,64,29.91,29.73,9,2,16,0.03
2013-6-12,95.1,82.7,70.0,77.9,74.0,67.8,98,77,50,29.84,29.55,15,6,22,0.00
2013-6-13,82.9,74.9,65.5,73.8,63.3,57.9,96,69,45,29.95,29.63,10,5,16,0.01
2013-6-14,80.3,69.7,56.2,66.6,60.0,54.0,94,73,52,30.08,29.91,4,1,11,0.00
2013-6-15,79.6,71.4,66.2,73.1,66.9,60.0,97,86,70,30.03,29.84,12,2,21,0.62
2013-6-16,83.0,73.4,65.2,75.0,70.2,64.6,100,90,74,29.93,29.85,5,1,10,0.01
2013-6-17,85.9,75.7,64.7,74.0,68.6,62.5,100,81,47,29.91,29.83,4,0,6,0.00
2013-6-18,83.8,73.7,65.9,71.5,66.2,59.4,99,79,59,29.98,29.84,8,2,12,0.00
2013-6-19,84.5,71.4,57.4,68.7,60.7,52.4,86,70,46,30.06,29.98,4,1,8,0.00
2013-6-20,89.3,78.1,63.9,72.4,67.2,61.1,97,71,47,30.08,29.98,5,2,12,0.00
2013-6-21,89.1,77.0,71.2,76.9,71.1,66.5,95,82,64,30.03,29.90,17,3,27,0.03
2013-6-22,84.4,76.4,67.6,78.9,72.7,65.2,95,88,81,30.01,29.91,10,2,21,0.00
2013-6-23,88.1,74.5,67.2,77.5,70.6,65.1,98,88,66,30.00,29.85,8,2,20,0.04
2013-6-24,88.7,73.9,68.1,79.8,70.8,67.1,98,91,74,30.04,29.84,7,2,11,0.31
2013-6-25,85.2,76.5,69.8,79.2,73.8,67.6,98,92,81,29.89,29.76,9,3,20,0.18
2013-6-26,85.2,77.3,70.5,78.7,74.2,68.1,99,91,76,29.80,29.66,9,2,13,0.01
2013-6-27,90.9,80.1,71.8,77.5,73.6,68.7,100,82,58,29.80,29.70,7,2,12,0.00
2013-6-28,85.7,76.5,65.4,69.8,65.8,62.1,98,72,46,29.76,29.61,11,4,25,0.00
2013-6-29,77.7,69.1,65.0,68.8,65.3,62.3,95,88,73,29.72,29.58,10,4,17,0.12
2013-6-30,79.8,69.6,62.9,68.3,62.5,54.2,92,79,60,29.93,29.72,8,4,16,0.02
2013-7-1,80.7,71.3,62.1,59.8,55.8,52.2,78,59,44,29.99,29.91,11,6,21,0.00
2013-7-2,78.2,67.7,61.2,62.1,57.7,55.2,85,71,52,30.02,29.96,9,4,17,0.00
2013-7-3,79.4,68.0,59.2,62.8,59.4,56.0,95,76,50,30.04,29.97,6,1,9,0.00
2013-7-4,85.2,73.3,61.4,69.9,64.7,60.2,97,76,55,30.05,29.97,5,2,12,0.00
2013-7-5,85.7,74.4,61.9,72.3,66.2,60.7,99,78,50,30.04,29.95,5,1,13,0.00
2013-7-6,85.5,74.1,63.7,73.6,68.8,62.5,99,85,61,30.01,29.92,5,1,10,0.00
2013-7-7,90.6,78.9,67.3,77.1,71.6,64.6,93,79,58,29.97,29.90,6,2,11,0.00
2013-7-8,87.7,78.7,74.7,78.1,74.3,71.6,95,87,71,30.02,29.92,9,2,12,0.03
2013-7-9,91.7,82.3,76.4,81.9,78.0,75.3,98,87,72,29.96,29.83,6,2,11,0.04
2013-7-10,89.8,79.7,64.9,78.6,72.4,62.2,97,80,54,29.96,29.78,10,3,18,0.00
2013-7-11,84.3,72.3,60.5,68.9,62.3,58.6,98,74,46,30.04,29.96,6,2,14,0.00
2013-7-12,85.4,70.9,57.0,62.3,58.4,54.4,92,68,41,30.10,30.01,5,1,12,0.00
2013-7-13,86.2,73.8,60.6,67.4,63.6,59.3,97,73,45,30.09,30.01,6,2,15,0.00
2013-7-14,89.6,78.5,65.6,74.0,70.1,64.4,97,77,53,30.12,30.04,5,2,11,0.00
2013-7-15,90.6,79.9,72.3,78.5,74.9,71.4,97,86,65,30.19,30.11,5,1,10,0.00
2013-7-16,92.2,82.3,73.8,79.4,75.8,73.1,99,82,60,30.26,30.18,5,2,11,0.00
2013-7-17,94.9,82.8,71.0,80.1,76.0,70.6,100,82,57,30.27,30.13,4,1,9,0.00
2013-7-18,95.0,83.8,73.1,81.2,77.1,72.8,100,82,59,30.15,29.93,5,2,13,0.00
2013-7-19,95.8,84.8,74.2,80.5,76.7,73.0,98,79,56,29.94,29.76,8,3,16,0.00
2013-7-20,90.6,81.2,71.1,76.6,71.0,65.1,96,74,47,29.87,29.77,6,2,12,0.00
2013-7-21,82.5,74.9,65.8,76.0,71.7,64.6,98,90,79,29.89,29.80,5,1,10,0.09
2013-7-22,89.3,77.9,68.2,76.9,72.5,67.6,99,85,62,29.82,29.71,14,2,21,0.00
2013-7-23,84.6,74.1,65.4,73.4,67.6,62.6,99,82,62,29.89,29.72,11,4,28,0.02
2013-7-24,78.7,68.0,55.9,62.2,58.1,53.9,97,73,51,30.01,29.89,6,2,14,0.00
2013-7-25,82.6,68.8,52.8,64.6,59.6,51.4,98,75,51,30.08,30.00,4,1,9,0.00
2013-7-26,76.9,67.2,61.2,72.4,64.8,60.1,97,92,85,30.02,29.87,8,1,16,0.66
2013-7-27,70.2,62.7,53.4,61.6,55.9,51.7,98,80,56,29.95,29.89,9,3,15,0.01
2013-7-28,75.4,62.6,49.8,58.9,55.0,48.5,98,78,54,30.02,29.92,7,2,16,0.00
2013-7-29,78.7,65.5,51.9,64.1,58.3,51.6,100,80,56,30.13,30.03,5,1,8,0.00
2013-7-30,70.5,67.7,65.5,69.6,65.9,60.3,99,94,80,30.11,29.99,4,1,11,0.47
2013-7-31,78.2,71.5,67.1,73.3,69.4,64.9,100,93,82,30.00,29.94,6,2,12,0.01
2013-8-1,83.6,72.2,61.5,69.2,64.9,60.7,100,80,53,30.01,29.91,6,1,13,0.01
2013-8-2,85.4,74.2,65.4,75.7,69.6,63.3,97,86,66,29.92,29.83,7,3,14,0.00
2013-8-3,83.0,73.7,61.4,70.8,65.3,59.4,98,77,51,30.08,29.90,8,2,12,0.00
2013-8-4,81.2,69.3,56.0,66.1,60.6,55.4,100,77,50,30.14,30.04,3,1,9,0.00
2013-8-5,77.6,69.1,59.0,69.7,64.5,58.3,99,86,73,30.06,29.83,5,2,13,0.00
2013-8-6,86.2,75.4,66.3,77.3,71.9,65.1,99,90,71,29.88,29.77,4,1,8,0.00
2013-8-7,88.7,78.1,70.5,80.9,74.2,69.1,99,88,67,29.88,29.76,8,2,13,0.00
2013-8-8,83.7,74.3,66.4,72.4,68.3,64.2,96,82,66,29.94,29.86,7,2,13,0.00
2013-8-9,82.1,72.2,59.0,70.3,64.5,57.0,96,78,54,30.02,29.93,5,1,8,0.00
2013-8-10,83.1,73.2,60.4,69.1,63.8,58.4,96,74,52,30.10,30.02,8,3,14,0.00
2013-8-11,85.1,70.5,54.5,69.3,63.3,53.9,100,80,55,30.11,30.00,5,1,8,0.00
2013-8-12,84.6,74.2,63.0,74.6,69.1,62.4,98,85,68,30.03,29.84,6,1,12,0.00
2013-8-13,77.7,68.0,52.8,66.2,59.1,49.5,94,75,48,30.12,29.90,9,4,15,0.00
2013-8-14,76.3,61.7,47.6,58.4,53.0,46.8,99,76,46,30.19,30.10,5,1,7,0.00
2013-8-15,77.0,64.6,53.6,60.0,56.8,52.1,97,78,50,30.16,30.06,4,1,9,0.00
2013-8-16,81.6,68.9,58.0,61.8,58.7,55.3,95,73,43,30.14,30.08,6,2,13,0.00
2013-8-17,81.3,67.9,55.0,64.0,59.5,54.2,98,77,51,30.18,30.10,6,2,12,0.00
2013-8-18,83.8,70.1,54.6,65.0,61.0,53.5,98,76,48,30.16,30.05,6,1,11,0.00
2013-8-19,86.5,72.8,59.0,70.7,65.6,58.4,99,80,54,30.09,29.99,5,1,10,0.00
2013-8-20,87.9,75.1,62.7,72.7,68.3,62.0,99,81,55,30.07,29.98,5,1,10,0.00
2013-8-21,90.3,77.3,65.4,74.0,69.9,64.8,99,80,55,30.06,29.95,6,2,13,0.00
2013-8-22,84.2,76.1,69.7,75.4,70.9,67.9,94,84,71,30.05,29.98,8,2,16,0.00
2013-8-23,86.9,75.1,64.4,72.0,68.1,63.5,99,81,52,30.10,30.03,6,2,12,0.00
2013-8-24,88.4,75.3,61.9,73.4,67.8,60.4,96,79,59,30.18,30.09,5,2,11,0.00
2013-8-25,90.6,77.5,65.2,72.9,68.8,63.8,96,77,51,30.22,30.11,5,2,12,0.00
2013-8-26,93.4,79.1,64.4,77.5,71.5,63.4,98,80,52,30.14,29.97,5,2,10,0.00
2013-8-27,95.1,81.9,71.3,77.4,73.2,69.2,98,77,50,29.99,29.86,8,3,15,0.00
2013-8-28,95.8,82.6,69.4,79.1,73.3,67.3,93,76,53,29.95,29.87,5,2,12,0.00
2013-8-29,88.3,78.7,71.1,77.4,73.9,70.2,99,86,69,30.01,29.91,5,2,11,0.00
2013-8-30,99.5,83.7,70.6,80.9,74.8,66.8,98,77,47,29.92,29.73,8,2,13,0.00
2013-8-31,96.2,81.8,70.7,81.6,73.5,65.0,94,77,59,29.78,29.66,8,3,19,0.00
2013-9-1,92.1,77.6,65.5,76.0,70.6,65.2,100,81,50,29.80,29.69,7,2,11,0.00
2013-9-2,85.1,72.9,59.0,67.7,63.1,55.4,93,73,50,29.94,29.79,9,4,16,0.00
2013-9-3,80.4,67.4,54.6,63.8,59.6,53.5,99,78,51,30.06,29.94,6,1,11,0.00
2013-9-4,86.9,69.3,53.1,65.6,59.5,52.6,100,75,44,30.12,30.02,4,1,8,0.00
2013-9-5,90.0,73.9,59.2,71.3,65.0,58.0,97,76,51,30.15,30.08,4,1,10,0.00
2013-9-6,89.4,74.2,60.4,69.5,64.7,58.4,94,75,49,30.14,29.98,5,2,13,0.00
2013-9-7,91.4,76.2,61.9,71.8,67.3,61.2,98,76,48,29.99,29.85,7,2,14,0.00
2013-9-8,88.8,78.6,71.1,75.3,71.8,69.0,94,81,61,29.93,29.83,5,2,11,0.01
2013-9-9,98.2,83.2,71.3,79.2,74.9,70.5,99,79,49,29.87,29.79,7,3,11,0.00
2013-9-10,98.4,82.5,68.2,74.4,70.6,66.7,96,71,41,29.99,29.88,10,3,17,0.00
2013-9-11,96.0,80.7,68.1,73.5,69.9,66.0,94,72,45,30.03,29.95,8,3,17,0.00
2013-9-12,86.7,75.1,64.2,72.9,62.3,50.2,99,69,34,30.04,29.94,12,5,21,0.02
2013-9-13,72.9,62.5,51.7,54.6,47.6,41.5,91,61,34,30.15,30.03,10,4,18,0.00
2013-9-14,75.1,58.8,42.6,50.6,47.3,41.5,98,70,38,30.17,30.00,4,1,10,0.00
2013-9-15,69.6,61.8,53.7,63.9,56.5,48.6,96,83,62,30.12,29.95,8,2,18,0.21
2013-9-16,74.3,62.9,53.4,58.5,56.0,49.6,96,80,56,30.29,30.12,8,4,14,0.00
2013-9-17,77.8,63.4,51.1,61.8,56.0,49.4,96,79,56,30.27,30.06,5,2,10,0.00
2013-9-18,88.4,74.8,63.4,73.2,66.9,57.7,92,77,59,30.06,29.86,8,3,19,0.00
2013-9-19,93.0,80.5,69.5,74.7,71.9,67.3,96,77,52,29.90,29.73,13,4,15,0.40
2013-9-20,72.9,67.7,57.0,70.0,63.4,53.4,100,87,60,29.86,29.78,7,2,40,0.06
2013-9-21,72.4,60.3,51.0,56.8,52.6,49.2,96,78,49,29.91,29.84,7,3,15,0.00
2013-9-22,74.0,59.4,45.6,54.1,50.4,45.1,100,76,44,30.02,29.91,4,1,9,0.01
2013-9-23,77.5,62.1,47.9,55.4,50.7,46.0,94,69,42,30.04,29.93,5,2,13,0.00
2013-9-24,79.8,64.1,49.9,61.4,55.2,48.2,95,75,51,29.96,29.81,5,2,13,0.00
2013-9-25,81.9,68.1,54.5,63.7,57.5,51.0,89,70,51,29.88,29.82,6,2,13,0.00
2013-9-26,84.6,68.4,56.0,66.2,58.0,52.5,90,72,47,30.00,29.88,6,2,10,0.00
2013-9-27,85.4,68.3,51.2,62.9,55.0,49.2,94,66,36,30.09,29.97,6,2,12,0.00
2013-9-28,85.3,71.2,59.2,69.0,62.3,55.6,97,75,53,30.00,29.85,11,4,24,0.46
2013-9-29,72.6,60.9,51.5,60.2,52.4,46.1,99,77,39,30.04,29.95,7,3,12,0.01
2013-9-30,79.3,63.3,48.7,60.8,55.0,47.6,97,77,45,29.97,29.83,5,1,12,0.00
2013-10-1,81.4,69.7,60.8,70.6,66.1,59.7,99,89,68,29.95,29.87,8,3,15,0.00
2013-10-2,84.4,69.0,61.5,71.7,62.4,-99.9,100,87,60,30.03,29.91,4,1,12,0.01
2013-10-3,83.2,71.4,65.3,74.0,68.8,64.3,100,92,70,29.92,29.78,13,2,24,0.88
2013-10-4,86.3,74.7,66.4,75.6,69.9,65.2,100,86,63,29.92,29.84,4,1,9,0.00
2013-10-5,77.5,71.0,58.3,73.9,68.0,55.7,99,90,74,29.88,29.74,9,2,13,0.00
2013-10-6,58.4,52.1,47.4,55.3,46.9,42.9,96,83,64,29.81,29.74,10,4,18,0.01
2013-10-7,70.1,56.5,46.0,53.9,50.0,44.9,98,81,52,30.08,29.81,7,2,17,0.01
2013-10-8,77.9,60.9,46.3,57.1,50.7,44.9,98,73,41,30.17,30.08,4,1,11,0.00
2013-10-9,75.4,59.8,46.5,54.0,50.0,45.1,96,73,42,30.19,30.07,3,0,10,0.00
2013-10-10,78.2,62.5,48.7,62.5,55.6,47.1,97,80,56,30.13,29.97,4,1,12,0.00
2013-10-11,80.2,67.6,57.9,64.8,59.0,56.1,95,76,51,30.01,29.86,8,3,18,0.00
2013-10-12,73.2,64.3,51.3,65.6,56.0,43.1,93,76,43,30.18,29.89,7,2,13,0.00
2013-10-13,68.5,53.3,39.4,48.7,40.9,38.0,98,67,36,30.37,30.18,7,2,13,0.00
2013-10-14,69.0,53.5,39.3,48.6,42.4,36.9,95,69,37,30.36,30.05,6,1,15,0.00
2013-10-15,71.3,61.1,51.8,65.1,55.3,45.5,98,82,66,30.04,29.78,10,4,17,0.05
2013-10-16,56.2,51.7,45.2,47.7,45.8,42.2,90,80,72,29.97,29.90,9,4,16,0.00
2013-10-17,62.9,52.2,44.1,50.8,46.0,41.4,97,81,51,29.96,29.83,9,3,18,0.10
2013-10-18,56.7,47.1,38.9,44.9,41.8,37.6,97,83,60,30.00,29.86,6,2,14,0.02
2013-10-19,57.1,48.3,39.7,44.6,41.2,38.1,97,78,51,29.97,29.83,11,4,17,0.04
2013-10-20,72.0,54.7,38.2,50.7,43.9,36.6,96,70,41,29.87,29.72,12,3,22,0.00
2013-10-21,58.2,46.5,30.7,48.3,36.9,27.8,90,70,46,30.02,29.82,9,3,15,0.00
2013-10-22,45.4,37.4,28.1,44.3,35.9,25.8,100,94,89,30.01,29.82,8,2,14,0.34
2013-10-23,47.3,40.4,34.9,37.9,35.1,32.3,96,82,59,30.09,29.96,6,3,14,0.00
2013-10-24,44.6,38.8,28.4,37.4,29.7,23.6,92,71,54,30.36,30.08,9,4,18,0.00
2013-10-25,54.6,38.7,24.5,39.7,29.9,22.2,94,73,44,30.46,30.15,8,2,15,0.00
2013-10-26,59.0,46.6,31.9,42.2,35.1,28.7,89,65,41,30.14,29.95,14,5,22,0.00
2013-10-27,57.6,41.0,26.3,39.1,32.4,24.9,96,74,45,30.11,29.98,6,1,12,0.00
2013-10-28,66.0,47.5,32.2,43.5,36.4,29.2,91,69,37,30.28,30.05,5,1,12,0.00
2013-10-29,59.0,49.7,40.6,53.0,45.1,39.0,97,85,60,30.28,30.08,4,2,11,0.02
2013-10-30,65.5,59.2,53.6,65.5,59.0,52.9,100,99,97,30.08,29.75,8,2,15,1.95
2013-10-31,65.1,58.3,47.5,65.1,57.8,45.6,100,98,93,29.74,29.26,10,5,22,0.87
2013-11-1,53.7,47.7,42.0,47.9,45.1,39.8,98,91,76,29.78,29.50,9,4,17,0.00
2013-11-2,53.8,43.8,34.4,42.6,39.0,32.9,97,84,59,30.16,29.77,11,4,19,0.01
2013-11-3,55.1,42.7,29.3,43.4,36.4,28.3,98,80,54,30.29,30.15,5,2,12,0.00
2013-11-4,58.6,51.8,44.7,48.5,44.7,39.2,83,77,66,30.19,30.07,10,4,18,0.00
2013-11-5,56.3,54.1,52.3,54.9,52.0,48.3,98,93,81,30.23,29.94,6,2,15,0.30
2013-11-6,58.3,47.6,34.4,58.0,45.8,30.9,99,93,85,30.22,29.83,16,6,20,0.62
2013-11-7,50.6,37.2,28.4,43.6,33.2,26.4,95,86,64,30.32,30.22,13,3,19,0.00
2013-11-8,50.2,40.9,27.6,40.1,34.5,26.4,97,79,60,30.34,29.98,10,3,15,0.01
2013-11-9,63.2,51.4,43.1,48.1,41.8,38.3,89,71,49,30.19,29.94,14,7,21,0.00
2013-11-10,49.2,40.9,34.4,38.2,34.6,30.9,92,79,60,30.41,30.19,6,2,15,0.00
2013-11-11,54.3,41.6,28.1,43.6,36.6,23.3,96,83,66,30.54,30.12,12,5,21,0.04
2013-11-12,33.3,26.7,21.5,25.4,21.5,17.4,91,80,70,30.77,30.54,11,5,17,0.00
2013-11-13,43.0,31.0,19.4,28.3,23.0,17.2,92,74,51,30.68,30.23,10,4,17,0.00
2013-11-14,53.8,40.1,29.6,33.4,28.4,22.7,79,64,43,30.23,29.99,10,5,15,0.00
2013-11-15,50.6,42.8,34.4,43.3,37.0,29.5,90,80,73,30.00,29.90,6,3,10,0.00
2013-11-16,60.6,54.4,41.1,58.5,52.4,38.7,96,93,86,29.90,29.56,12,7,24,0.11
2013-11-17,73.7,58.9,45.0,67.7,54.7,41.6,97,86,74,29.86,29.18,25,11,39,0.01
2013-11-18,49.5,42.2,30.9,42.2,35.9,28.1,91,79,60,30.28,29.86,14,7,21,0.00
2013-11-19,46.9,35.8,24.8,33.3,29.4,22.9,95,79,55,30.36,30.23,4,2,11,0.00
2013-11-20,44.1,38.6,32.6,41.2,35.0,29.5,95,87,74,30.25,30.02,10,4,17,0.23
2013-11-21,50.9,47.0,43.2,49.2,45.6,41.0,98,95,92,30.21,30.07,7,1,9,0.11
2013-11-22,44.3,37.7,28.5,43.5,35.2,25.9,97,90,81,30.53,30.21,12,6,18,0.02
2013-11-23,28.3,24.2,17.4,26.0,17.7,9.9,92,76,62,30.76,30.51,14,8,23,0.00
2013-11-24,29.1,20.6,11.7,17.3,12.5,7.6,87,72,47,30.80,30.43,6,2,15,0.00
2013-11-25,34.4,30.4,23.9,27.4,22.6,17.3,84,73,63,30.42,30.13,11,5,18,0.00
2013-11-26,37.3,28.2,20.5,31.1,21.6,11.6,91,76,60,30.25,30.08,15,7,27,0.00
2013-11-27,30.1,21.6,15.7,16.1,12.9,9.2,83,69,54,30.33,30.24,11,6,21,0.00
2013-11-28,39.8,28.5,19.2,26.4,20.2,14.3,83,72,57,30.51,30.20,9,4,13,0.00
2013-11-29,40.1,28.1,13.7,26.4,21.3,11.3,92,77,56,30.63,30.39,5,2,12,0.00
2013-11-30,53.9,37.5,27.3,40.0,31.4,24.8,94,80,56,30.38,30.06,8,2,13,0.00
2013-12-1,50.2,36.7,24.6,38.4,31.7,23.4,97,83,59,30.12,29.95,4,0,6,0.00
2013-12-2,46.4,40.1,33.1,40.6,36.8,31.4,94,88,78,29.95,29.66,5,3,10,0.00
2013-12-3,51.2,46.1,38.7,50.9,45.6,37.4,100,98,94,29.68,29.60,5,3,12,0.00
2013-12-4,56.2,49.5,35.6,56.2,48.8,32.4,100,97,87,29.79,29.46,16,5,25,0.01
2013-12-5,34.6,25.6,22.1,31.4,19.6,14.4,92,78,70,30.31,29.80,15,9,21,0.00
2013-12-6,22.0,18.7,13.5,15.3,11.7,8.3,80,74,66,30.62,30.30,10,7,19,0.00
2013-12-7,23.7,15.3,9.4,10.7,7.8,5.8,85,73,51,30.75,30.57,8,4,13,0.00
2013-12-8,26.5,22.9,15.8,25.3,19.3,10.4,95,86,74,30.56,30.01,11,5,17,0.00
2013-12-9,26.1,19.2,8.1,24.6,14.1,2.4,94,81,73,30.30,30.03,13,8,18,0.00
2013-12-10,28.3,17.6,4.4,20.1,11.2,0.0,92,76,59,30.33,30.14,15,5,23,0.00
2013-12-11,25.4,17.9,4.7,19.8,10.6,-2.1,84,73,54,30.67,30.27,14,5,21,0.00
2013-12-12,32.9,17.9,2.8,20.3,10.3,-2.0,83,72,59,30.64,30.25,13,3,20,0.00
2013-12-13,41.6,29.2,17.5,32.7,23.8,13.8,96,81,58,30.25,30.02,5,2,10,0.00
2013-12-14,33.6,30.9,22.7,32.7,29.5,19.9,98,95,89,30.09,29.91,12,4,18,0.04
2013-12-15,22.1,18.4,13.3,19.1,14.5,10.4,91,85,78,30.16,30.07,12,4,18,0.00
2013-12-16,25.6,20.2,16.6,23.0,17.6,14.0,100,89,81,30.14,30.03,6,3,10,0.00
2013-12-17,36.4,27.4,21.4,31.8,23.5,16.4,95,86,70,30.22,30.08,12,6,17,0.08
2013-12-18,38.3,26.2,8.0,33.2,20.6,4.4,90,79,69,30.23,29.88,10,4,14,0.10
2013-12-19,42.1,39.1,34.6,41.3,36.9,32.1,97,92,87,29.90,29.74,6,2,9,0.12
2013-12-20,43.7,37.9,31.4,43.4,37.5,31.2,99,99,97,29.85,29.70,7,3,11,0.13
2013-12-21,34.1,31.7,30.1,33.6,31.2,29.6,99,98,97,29.87,29.58,6,4,10,0.01
2013-12-22,34.4,30.5,20.5,34.0,29.5,18.0,99,96,90,30.24,29.60,12,6,17,0.00
2013-12-23,21.1,13.9,6.9,18.6,9.9,0.6,90,84,75,30.57,30.25,12,8,17,0.00
2013-12-24,22.5,11.7,1.3,17.0,6.7,-3.4,90,80,76,30.65,30.37,8,4,16,0.00
2013-12-25,31.4,28.0,22.6,29.4,25.2,16.8,94,89,78,30.37,30.18,10,6,15,0.00
2013-12-26,39.2,31.1,19.7,34.8,27.6,17.2,93,87,78,30.34,30.17,7,3,15,0.01
2013-12-27,46.4,35.0,24.9,40.4,32.0,23.4,96,89,77,30.33,30.16,6,2,10,0.00
2013-12-28,52.6,40.0,32.3,39.5,33.5,30.1,93,79,57,30.16,29.86,8,3,13,0.01
2013-12-29,35.9,25.2,6.8,31.2,21.3,0.3,92,85,74,30.29,29.81,14,9,23,0.00
2013-12-30,18.1,10.3,1.5,11.5,2.0,-4.3,77,69,55,30.39,30.22,10,3,16,0.00
2013-12-31,27.4,19.3,12.7,19.5,13.1,8.7,84,77,66,30.42,30.21,9,4,15,0.00
2014-1-1,25.7,21.9,17.8,20.4,17.8,13.8,91,84,79,30.22,30.13,11,7,18,0.00
2014-1-2,17.6,13.0,-0.9,14.4,8.4,-4.3,88,82,75,30.49,30.14,14,9,21,0.00